Back to catalog

CZ-4C R/B

AliveScienceSSO
NORAD 68761·ROCKET BODY·🇨🇳 China

Launched Apr 17, 2026 from Jiuquan Satellite Launch Center

Loading…

Next Passes (next 24 hours)

TLE

FreshSource: Space-Track

Epoch: Sep 14, 2026, 17:00 UTC

1 68761U 26084B   26257.70901490  .00000800  00000-0  81275-4 0  9995
2 68761  98.2831 339.0821 0121295 274.0577  84.6782 14.88867924 22409

Track CZ-4C R/B in real time with AllMySat

Download on the App Store